Date String (YYYY-MM-DD hh:mm:ss) UTC,Instrument flags,Ambient pressure (hPa),Sample flow (lpm),Bypass flow (lpm),Sample temperature (°C),Ambient temperature (°C),ASC tube jacket temperature (°C),LED temperature (°C),Box temperature (°C),Sample RH (%),Span deviation,Mass concentration (μg/m³),Mass concentration (μg/m³),Mass concentration (μg/m³)
DateTimeUTC,F1_M11,P_M11,Q1_M11,Q2_M11,T1_M11,T2_M11,T3_M11,T4_M11,T5_M11,U1_M11,ZSPAN_M11,X0_M11,X2_M11,X1_M11
2023-01-13 08:00:00,,0832.0,4.99,0.00,22.0,20.3,00.0,31.0,23.6,11.7,0000.3,0017.10,0010.51,0009.70
2023-01-13 08:01:00,,0832.1,5.00,0.00,21.9,20.2,00.0,30.9,23.6,11.8,0000.2,0017.09,0010.51,0009.68
2023-01-13 08:02:00,,0832.1,5.00,0.00,21.9,20.2,00.0,30.9,23.6,12.0,-000.6,0016.53,0010.51,0009.67
2023-01-13 08:03:00,,0832.1,5.00,0.00,21.9,20.2,00.0,30.9,23.6,12.1,-000.2,0016.31,0010.61,0009.72
2023-01-13 08:04:00,,0832.1,4.99,0.00,21.9,20.2,00.0,30.9,23.6,12.4,-000.2,0016.30,0010.76,0009.86
2023-01-13 08:05:00,,0832.1,5.01,0.00,22.0,21.0,00.0,30.9,23.7,12.6,-000.5,0016.73,0011.00,0010.07
2023-01-13 08:06:00,,0832.1,5.01,0.00,22.0,22.0,00.0,30.8,23.9,12.7,-000.0,0016.77,0011.27,0010.33
2023-01-13 08:07:00,,0832.1,5.00,0.00,22.2,22.7,00.0,30.9,24.2,12.6,0000.9,0017.27,0011.54,0010.60
2023-01-13 08:08:00,,0832.0,4.99,0.00,22.2,22.3,00.0,30.9,24.2,12.5,0001.1,0017.63,0011.81,0010.84
2023-01-13 08:09:00,,0831.9,5.00,0.00,22.2,21.8,00.0,31.0,24.1,12.4,0000.7,0018.07,0011.98,0011.03
2023-01-13 08:10:00,,0831.9,5.00,0.00,22.2,21.3,00.0,31.0,24.0,12.1,0000.4,0018.38,0012.07,0011.13
2023-01-13 08:11:00,,0831.9,5.00,0.00,22.2,21.0,00.0,31.0,23.9,12.1,0000.2,0018.86,0012.22,0011.26
2023-01-13 08:12:00,,0831.9,4.99,0.00,22.2,20.8,00.0,31.0,23.9,12.3,0000.1,0019.20,0012.41,0011.43
2023-01-13 08:13:00,,0832.0,5.01,0.00,22.1,20.7,00.0,31.0,23.8,12.2,-000.1,0019.51,0012.56,0011.57
2023-01-13 08:14:00,,0832.0,5.01,0.00,22.1,20.5,00.0,31.0,23.8,12.3,-000.3,0019.62,0012.54,0011.60
2023-01-13 08:15:00,,0832.0,5.01,0.00,22.1,20.4,00.0,31.0,23.7,12.7,0000.1,0019.73,0012.62,0011.71
2023-01-13 08:16:00,,0832.0,5.00,0.00,22.0,20.3,00.0,31.0,23.6,12.8,0000.5,0019.20,0012.63,0011.78
2023-01-13 08:17:00,,0831.9,4.99,0.00,22.0,20.2,00.0,31.0,23.6,12.9,-000.0,0019.30,0012.65,0011.81
2023-01-13 08:18:00,,0831.9,4.99,0.00,22.0,20.1,00.0,31.0,23.5,12.9,-000.4,0019.13,0012.66,0011.81
2023-01-13 08:19:00,,0832.0,5.00,0.00,21.9,20.0,00.0,30.9,23.4,13.0,-000.5,0018.96,0012.68,0011.85
2023-01-13 08:20:00,,0832.0,5.01,0.00,21.9,19.9,00.0,30.9,23.4,13.1,-000.3,0018.95,0012.79,0011.95
2023-01-13 08:21:00,,0832.0,5.02,0.00,21.8,19.8,00.0,30.9,23.4,13.1,-000.4,0019.43,0012.98,0012.15
2023-01-13 08:22:00,,0832.0,4.99,0.00,21.8,19.8,00.0,30.9,23.4,13.0,-000.1,0019.26,0013.10,0012.31
2023-01-13 08:23:00,,0831.9,5.00,0.00,21.8,19.8,00.0,30.8,23.4,13.1,0000.0,0019.29,0013.17,0012.42
2023-01-13 08:24:00,,0831.8,5.00,0.00,21.8,19.8,00.0,30.8,23.4,13.2,0000.2,0019.49,0013.27,0012.54
2023-01-13 08:25:00,,0831.7,5.00,0.00,21.8,19.8,00.0,30.8,23.3,13.1,0000.2,0019.59,0013.44,0012.71
2023-01-13 08:26:00,,0831.7,5.01,0.00,21.8,20.3,00.0,30.8,23.5,13.1,0000.2,0019.35,0013.43,0012.69
2023-01-13 08:27:00,,0831.7,5.00,0.00,21.9,21.5,00.0,30.7,23.7,13.1,-000.3,0019.31,0013.40,0012.66
2023-01-13 08:28:00,,0831.7,5.01,0.00,22.0,22.5,00.0,30.7,24.0,13.0,-000.1,0019.16,0013.37,0012.61
2023-01-13 08:29:00,,0831.8,4.98,0.00,22.1,22.3,00.0,30.8,24.0,13.0,0000.0,0019.22,0013.34,0012.62
2023-01-13 08:30:00,,0831.7,4.99,0.00,22.1,21.7,00.0,30.8,23.9,12.9,0000.1,0019.34,0013.29,0012.58
2023-01-13 08:31:00,,0831.7,5.00,0.00,22.1,21.2,00.0,30.9,23.8,12.9,0000.2,0019.12,0013.26,0012.57
2023-01-13 08:32:00,,0831.7,5.01,0.00,22.0,20.9,00.0,30.9,23.7,13.0,0000.8,0019.31,0013.31,0012.60
2023-01-13 08:33:00,,0831.7,5.00,0.00,22.0,20.6,00.0,30.9,23.6,13.2,0001.0,0019.67,0013.49,0012.74
2023-01-13 08:34:00,,0831.7,5.00,0.00,22.0,20.3,00.0,30.9,23.5,13.4,0001.1,0019.81,0013.70,0012.96
2023-01-13 08:35:00,,0831.6,5.00,0.00,21.9,20.2,00.0,30.9,23.5,13.5,0001.2,0019.85,0013.91,0013.18
2023-01-13 08:36:00,,0831.6,5.00,0.00,21.9,20.1,00.0,30.9,23.4,13.6,0001.1,0020.35,0014.22,0013.48
2023-01-13 08:37:00,,0831.6,4.99,0.00,21.8,19.9,00.0,30.8,23.3,13.7,0000.8,0020.97,0014.59,0013.80
2023-01-13 08:38:00,,0831.6,5.00,0.00,21.8,19.7,00.0,30.8,23.2,13.7,0001.0,0022.36,0014.88,0014.04
2023-01-13 08:39:00,,0831.6,4.99,0.00,21.7,19.7,00.0,30.8,23.2,13.8,0001.0,0022.96,0015.11,0014.30
2023-01-13 08:40:00,,0831.6,5.00,0.00,21.7,19.6,00.0,30.8,23.1,13.9,0001.2,0023.14,0015.37,0014.50
2023-01-13 08:41:00,,0831.7,4.99,0.00,21.6,19.6,00.0,30.7,23.1,13.9,0001.4,0023.28,0015.58,0014.71
2023-01-13 08:42:00,,0831.6,5.01,0.00,21.6,19.6,00.0,30.7,23.0,13.9,0001.4,0023.66,0015.81,0014.88
2023-01-13 08:43:00,,0831.6,5.00,0.00,21.6,19.4,00.0,30.7,23.0,13.9,0001.1,0023.55,0015.91,0014.97
2023-01-13 08:44:00,,0831.7,5.00,0.00,21.5,19.4,00.0,30.6,22.9,13.8,0000.8,0023.94,0015.95,0014.99
2023-01-13 08:45:00,,0831.6,5.01,0.00,21.5,20.4,00.0,30.6,23.2,13.7,0000.7,0024.59,0016.03,0015.04
2023-01-13 08:46:00,,0831.6,4.99,0.00,21.7,21.6,00.0,30.5,23.5,13.6,0000.6,0024.66,0016.10,0015.09
2023-01-13 08:47:00,,0831.7,5.00,0.00,21.8,22.2,00.0,30.6,23.7,13.5,0000.6,0024.57,0016.14,0015.11
2023-01-13 08:48:00,,0831.7,4.98,0.00,21.8,21.6,00.0,30.6,23.6,13.5,0000.9,0024.41,0016.17,0015.16
2023-01-13 08:49:00,,0831.7,5.00,0.00,21.8,21.0,00.0,30.6,23.4,13.5,0001.0,0023.59,0016.16,0015.17
2023-01-13 08:50:00,,0831.7,5.00,0.00,21.7,20.5,00.0,30.6,23.3,13.4,0000.7,0023.04,0016.15,0015.14
2023-01-13 08:51:00,,0831.8,5.01,0.00,21.7,20.2,00.0,30.6,23.2,13.4,0000.4,0022.95,0016.08,0015.09
2023-01-13 08:52:00,,0831.7,5.01,0.00,21.6,19.9,00.0,30.6,23.1,13.4,0000.2,0022.81,0015.98,0015.02
2023-01-13 08:53:00,,0831.8,4.99,0.00,21.6,19.7,00.0,30.6,23.0,13.3,0000.4,0022.60,0015.90,0014.94
2023-01-13 08:54:00,,0831.8,4.99,0.00,21.5,19.5,00.0,30.6,22.9,13.3,0000.4,0022.00,0015.82,0014.89
2023-01-13 08:55:00,,0831.8,5.00,0.00,21.5,19.4,00.0,30.6,22.9,13.3,0000.6,0021.22,0015.65,0014.77
2023-01-13 08:56:00,,0831.7,4.99,0.00,21.4,19.3,00.0,30.5,22.8,13.3,0000.6,0020.78,0015.40,0014.55
2023-01-13 08:57:00,,0831.7,5.01,0.00,21.4,19.2,00.0,30.5,22.8,13.4,0000.7,0020.72,0015.25,0014.39
2023-01-13 08:58:00,,0831.7,5.00,0.00,21.3,19.2,00.0,30.5,22.7,13.5,0000.6,0020.54,0015.04,0014.19
2023-01-13 08:59:00,,0831.7,5.00,0.00,21.3,19.7,00.0,30.4,22.8,13.5,0000.5,0020.51,0014.88,0014.02
